Overview Statistics Trail Chart Weather Telemetry Raw packets
 

This is the latest recevied weather packets stored in our database for station/object M0TUM-1. If no packets are shown the sender has not sent any weather packets the latest 10 day(s).

<< 2 3 4 5 6 7 8 >>
Time Temp. Humidity Pressure Rain* Wind** Luminosity Snow
1788551258 16.11° C 72% 1015.1 hPa 0 mm - 0 W/m² -
1788550956 16.11° C 71% 1015.1 hPa 0 mm - 0 W/m² -
1788550652 16.11° C 71% 1014.7 hPa 0 mm - 0 W/m² -
1788550348 16.11° C 71% 1014.7 hPa 0 mm - 0 W/m² -
1788550043 16.67° C 70% 1014.6 hPa 0 mm - 0 W/m² -
1788549738 16.67° C 70% 1014.7 hPa 0 mm - 0 W/m² -
1788549435 16.67° C 70% 1014.4 hPa 0 mm - 0 W/m² -
1788549131 16.67° C 70% 1014.7 hPa 0 mm - 0 W/m² -
1788548827 16.67° C 69% 1014.6 hPa 0 mm - 0 W/m² -
1788548523 16.67° C 68% 1014.4 hPa 0 mm - 0 W/m² -
1788548219 16.67° C 67% 1014.4 hPa 0 mm - 0 W/m² -
1788547914 17.22° C 67% 1014.4 hPa 0 mm - 0 W/m² -
1788547612 17.22° C 67% 1014.2 hPa 0 mm - 0 W/m² -
1788547308 17.22° C 66% 1014.3 hPa 0 mm - 1 W/m² -
1788547004 17.22° C 66% 1014.2 hPa 0 mm - 2 W/m² -
1788546703 17.78° C 65% 1013.9 hPa 0 mm - 4 W/m² -
1788546399 17.78° C 65% 1014 hPa 0 mm - 7 W/m² -
1788546093 17.78° C 65% 1013.8 hPa 0 mm - 12 W/m² -
1788545790 17.78° C 65% 1013.9 hPa 0 mm - 16 W/m² -
1788545484 17.78° C 64% 1013.6 hPa 0 mm - 25 W/m² -
1788545179 18.33° C 63% 1013.9 hPa 0 mm - 34 W/m² -
1788544875 18.33° C 62% 1013.6 hPa 0 mm - 35 W/m² -
1788544573 18.33° C 62% 1013.5 hPa 0 mm - 44 W/m² -
1788544272 18.33° C 62% 1013.6 hPa 0 mm - 41 W/m² -
1788543967 18.33° C 63% 1013.5 hPa 0 mm - 43 W/m² -

* Rain latest hour (hover to see other rain measurements)
** Current wind speed in m/s (hover to see current wind gust speed)